EW6287 Weather Reports


Display with metric or nautical units.
time (UTC)temp
F
wind
direction
speed
MPH
gust
MPH
rain 1hr
in
rain 24hr
in
rain mn
in
humidity
%
barometer
mb
20240530080017 53 139 1.0 4.0 0.00 0.00 0.00 81 1017.4
20240530074516 53 140 1.0 5.0 0.00 0.00 0.00 81 1017.4
20240530073016 54 140 2.0 5.0 0.00 0.00 0.00 81 1017.5
20240530071513 54 140 1.0 4.0 0.00 0.00 0.00 81 1017.8
20240530070012 54 140 1.0 3.0 0.00 0.00 0.00 81 1017.4
20240530064509 55 140 1.0 4.0 0.00 0.00 0.00 80 1017.5
20240530063008 55 140 1.0 4.0 0.00 0.00 0.00 78 1017.7
20240530061504 56 141 1.0 3.0 0.00 0.00 0.00 77 1017.8
20240530060011 56 141 1.0 5.0 0.00 0.00 0.00 76 1017.8
20240530054503 56 141 1.0 4.0 0.00 0.00 0.00 76 1017.9
20240530053100 56 141 1.0 4.0 0.00 0.00 0.00 75 1018.1
20240530051601 56 141 2.0 5.0 0.00 0.00 0.00 75 1018.1
20240530050106 57 141 1.0 3.0 0.00 0.00 0.00 75 1018.3
20240530044559 57 141 1.0 3.0 0.00 0.00 0.00 74 1018.5
20240530043058 57 141 1.0 4.0 0.00 0.00 0.00 74 1018.5
20240530041604 57 141 0.0 3.0 0.00 0.00 0.00 73 1018.5
20240530040056 58 141 1.0 3.0 0.00 0.00 0.00 72 1018.5
20240530034555 58 141 0.0 3.0 0.00 0.00 0.00 70 1018.1
20240530033055 59 141 1.0 4.0 0.00 0.00 0.00 70 1018.1
20240530031601 59 141 0.0 3.0 0.00 0.00 0.00 70 1018.1
20240530030102 59 141 1.0 4.0 0.00 0.00 0.00 68 1018.0
20240530024554 60 141 0.0 2.0 0.00 0.00 0.00 68 1018.0
20240530023108 60 141 1.0 3.0 0.00 0.00 0.00 67 1017.9
20240530021553 61 141 0.0 2.0 0.00 0.00 0.00 64 1017.8
20240530020051 62 141 0.0 1.0 0.00 0.00 0.00 62 1017.9
20240530014603 63 141 0.0 2.0 0.00 0.00 0.00 59 1017.8
20240530013054 63 141 0.0 2.0 0.00 0.00 0.00 57 1018.1
20240530011559 64 141 1.0 3.0 0.00 0.00 0.00 55 1018.3
20240530010050 65 141 1.0 4.0 0.00 0.00 0.00 51 1018.3
20240530004557 65 141 1.0 4.0 0.00 0.00 0.00 50 1018.3
20240530003049 66 141 0.0 4.0 0.00 0.00 0.00 50 1018.5
20240530001547 67 141 0.0 5.0 0.00 0.00 0.00 49 1018.6
20240530000055 67 143 0.0 3.0 0.00 0.00 0.00 48 1018.6
20240529234545 68 143 2.0 5.0 0.00 0.00 0.00 47 1018.8
20240529233044 68 184 1.0 10.0 0.00 0.00 0.00 47 1019.0
20240529231542 69 135 1.0 6.0 0.00 0.00 0.00 45 1019.1
20240529230051 69 190 0.0 7.0 0.00 0.00 0.00 45 1019.1
20240529224542 69 161 2.0 7.0 0.00 0.00 0.00 45 1019.2
20240529223041 69 195 3.0 10.0 0.00 0.00 0.00 45 1019.4
20240529221541 70 149 0.0 7.0 0.00 0.00 0.00 45 1019.3
20240529220040 70 191 0.0 4.0 0.00 0.00 0.00 47 1019.3
20240529214539 70 209 0.0 5.0 0.00 0.00 0.00 47 1019.6
20240529213039 70 207 1.0 7.0 0.00 0.00 0.00 47 1019.7
20240529211536 71 187 1.0 8.0 0.00 0.00 0.00 47 1019.7
20240529210039 70 207 4.0 10.0 0.00 0.00 0.00 48 1019.8
20240529204532 70 179 1.0 4.0 0.00 0.00 0.00 52 1020.1
20240529203037 69 198 0.0 5.0 0.00 0.00 0.00 50 1020.2
20240529201529 69 116 1.0 6.0 0.00 0.00 0.00 49 1020.1
20240529200034 68 122 4.0 7.0 0.00 0.00 0.00 52 1020.5
20240529194529 68 126 2.0 5.0 0.00 0.00 0.00 54 1020.7
20240529193024 68 109 2.0 7.0 0.00 0.00 0.00 52 1020.7
20240529191524 68 134 3.0 7.0 0.00 0.00 0.00 52 1021.0
20240529190021 68 151 1.0 4.0 0.00 0.00 0.00 53 1021.3
20240529184520 68 118 2.0 4.0 0.00 0.00 0.00 54 1021.6
20240529183019 67 84 0.0 8.0 0.00 0.00 0.00 52 1021.6
20240529181517 67 87 1.0 8.0 0.00 0.00 0.00 54 1021.9
20240529180022 67 82 1.0 7.0 0.00 0.00 0.00 55 1022.3
20240529174516 67 124 0.0 5.0 0.00 0.00 0.00 55 1022.4
20240529173012 66 157 0.0 5.0 0.00 0.00 0.00 55 1022.5
20240529171512 65 80 3.0 7.0 0.00 0.00 0.00 58 1022.9
20240529170011 65 80 1.0 10.0 0.00 0.00 0.00 59 1022.9
20240529164512 66 111 1.0 6.0 0.00 0.00 0.00 57 1023.1
20240529163009 66 127 0.0 5.0 0.00 0.00 0.00 60 1023.5
20240529161508 65 182 0.0 6.0 0.00 0.00 0.00 61 1023.4
20240529160004 64 77 1.0 7.0 0.00 0.00 0.00 63 1023.5
20240529154503 64 145 1.0 3.0 0.00 0.00 0.00 62 1023.6
20240529153120 63 149 1.0 4.0 0.00 0.00 0.00 63 1023.6
20240529151606 62 100 0.0 5.0 0.00 0.00 0.00 66 1023.7
20240529150103 62 203 1.0 5.0 0.00 0.00 0.00 68 1023.9
20240529144559 61 203 2.0 4.0 0.00 0.00 0.00 68 1023.9
20240529143051 60 206 0.0 6.0 0.00 0.00 0.00 70 1024.0
20240529141554 60 74 0.0 3.0 0.00 0.00 0.00 75 1024.3
20240529140118 59 74 1.0 3.0 0.00 0.00 0.00 77 1024.2
20240529134543 58 74 0.0 4.0 0.00 0.00 0.00 79 1024.2
20240529133040 57 74 1.0 3.0 0.00 0.00 0.00 81 1024.3
20240529131542 56 74 0.0 3.0 0.00 0.00 0.00 83 1024.1
20240529130035 55 74 0.0 2.0 0.00 0.00 0.00 85 1024.0
20240529124530 54 74 0.0 2.0 0.00 0.00 0.00 87 1023.9
20240529123028 53 74 0.0 0.0 0.00 0.00 0.00 89 1023.7
20240529121534 52 74 0.0 0.0 0.00 0.00 0.00 91 1023.6
20240529120026 52 74 0.0 0.0 0.00 0.00 0.00 93 1023.4
20240529114527 51 74 0.0 0.0 0.00 0.00 0.00 96 1023.2
20240529113024 49 74 0.0 0.0 0.00 0.00 0.00 97 1023.7
20240529111542 48 74 0.0 0.0 0.00 0.00 0.00 95 1023.5
20240529110024 48 74 0.0 0.0 0.00 0.01 0.00 95 1023.5
20240529104519 47 74 0.0 0.0 0.00 0.01 0.00 94 1023.1
20240529103035 48 74 0.0 0.0 0.00 0.01 0.00 95 1022.7
20240529101517 48 74 0.0 0.0 0.00 0.01 0.00 94 1022.8
20240529100015 48 74 0.0 0.0 0.00 0.02 0.00 95 1022.9
20240529094510 48 74 0.0 0.0 0.00 0.02 0.00 94 1022.4
20240529093010 48 74 0.0 0.0 0.00 0.02 0.00 94 1022.4
20240529091506 49 74 0.0 0.0 0.00 0.02 0.00 94 1021.9
20240529090006 48 74 0.0 0.0 0.00 0.02 0.00 93 1022.1
20240529084517 48 74 0.0 0.0 0.00 0.02 0.00 92 1022.0
20240529083004 49 74 0.0 0.0 0.00 0.02 0.00 90 1022.1
20240529081506 49 74 0.0 0.0 0.00 0.02 0.00 90 1022.1